• In United Kingdom
  • List of Countries
  • For 7 days
  • Water Temperature
  • Satellite Maps
  • Weather Map
  • Weather Widgets
  • user-avatar
    Login

    Hourly Weather Elbasan

    Today, 19 February, Monday

    Time Temperature Precipitation Wind Pressure Humidity
    00:00 +8°C° 0.1 mm 2 mps 734 mmHg 85%
    01:00 +8°C° 0.1 mm 2 mps 734 mmHg 85%
    02:00 +8°C° 0.2 mm 2 mps 734 mmHg 85%
    03:00 +8°C° 0.2 mm 2 mps 734 mmHg 85%
    04:00 +7°C° 0.2 mm 2 mps 734 mmHg 85%
    05:00 +7°C° 0.2 mm 2 mps 734 mmHg 85%
    06:00 +7°C° 0.2 mm 2 mps 734 mmHg 85%
    07:00 +7°C° 0.2 mm 2 mps 734 mmHg 85%
    08:00 +8°C° 0.2 mm 2 mps 734 mmHg 81%
    09:00 +9°C° 0.2 mm 2 mps 734 mmHg 78%
    10:00 +10°C° 0.2 mm 2 mps 734 mmHg 74%
    11:00 +10°C° 0.2 mm 2 mps 733 mmHg 72%
    12:00 +12°C° 0.2 mm 2 mps 733 mmHg 70%
    13:00 +12°C° 0.2 mm 2 mps 733 mmHg 68%
    14:00 +12°C° 0.4 mm 2 mps 733 mmHg 70%
    15:00 +10°C° 0.4 mm 2 mps 732 mmHg 73%
    16:00 +11°C° 0.4 mm 1 mps 732 mmHg 76%
    17:00 +11°C° 0.4 mm 1 mps 732 mmHg 79%
    18:00 +10°C° 0.4 mm 1 mps 732 mmHg 81%
    19:00 +9°C° 0.4 mm 1 mps 732 mmHg 84%
    20:00 +9°C° 0.3 mm 1 mps 732 mmHg 85%
    21:00 +8°C° 0.3 mm 2 mps 732 mmHg 85%
    22:00 +8°C° 0.3 mm 2 mps 732 mmHg 86%
    23:00 +8°C° 0.5 mm 2 mps 732 mmHg 86%

    Tomorrow, 20 February, Tuesday

    Time Temperature Precipitation Wind Pressure Humidity
    00:00 +8°C° 0.5 mm 2 mps 732 mmHg 87%
    01:00 +7°C° 0.5 mm 2 mps 731 mmHg 87%
    02:00 +7°C° 0.6 mm 2 mps 731 mmHg 87%
    03:00 +7°C° 0.6 mm 2 mps 731 mmHg 87%
    04:00 +7°C° 0.6 mm 2 mps 730 mmHg 87%
    05:00 +7°C° 0.7 mm 2 mps 730 mmHg 86%
    06:00 +7°C° 0.7 mm 2 mps 730 mmHg 86%
    07:00 +7°C° 0.7 mm 3 mps 730 mmHg 86%
    08:00 +8°C° 0.4 mm 3 mps 730 mmHg 83%
    09:00 +9°C° 0.4 mm 3 mps 730 mmHg 80%
    10:00 +9°C° 0.4 mm 3 mps 730 mmHg 78%
    11:00 +10°C° 0.3 mm 3 mps 730 mmHg 77%
    12:00 +10°C° 0.3 mm 3 mps 730 mmHg 77%
    13:00 +10°C° 0.3 mm 3 mps 729 mmHg 76%
    14:00 +10°C° 0.4 mm 3 mps 729 mmHg 77%
    15:00 +10°C° 0.4 mm 3 mps 729 mmHg 78%
    16:00 +10°C° 0.4 mm 2 mps 728 mmHg 79%
    17:00 +9°C° 0.5 mm 2 mps 729 mmHg 81%
    18:00 +9°C° 0.5 mm 2 mps 729 mmHg 83%
    19:00 +8°C° 0.5 mm 3 mps 729 mmHg 85%
    20:00 +8°C° 0.3 mm 3 mps 729 mmHg 85%
    21:00 +8°C° 0.3 mm 3 mps 729 mmHg 86%
    22:00 +8°C° 0.3 mm 3 mps 729 mmHg 86%
    23:00 +7°C° 0.1 mm 3 mps 729 mmHg 86%

    Day after tomorrow, 21 February, Wednesday

    Time Temperature Precipitation Wind Pressure Humidity
    00:00 +7°C° 0.1 mm 3 mps 728 mmHg 86%
    01:00 +7°C° 0.1 mm 3 mps 728 mmHg 86%
    02:00 +7°C° 0.2 mm 3 mps 728 mmHg 86%
    03:00 +7°C° 0.2 mm 3 mps 728 mmHg 85%
    04:00 +5°C° 0.2 mm 3 mps 728 mmHg 85%
    05:00 +7°C° 0.2 mm 3 mps 728 mmHg 85%
    06:00 +7°C° 0.2 mm 3 mps 728 mmHg 85%
    07:00 +7°C° 0.2 mm 3 mps 728 mmHg 84%
    08:00 +8°C° 0.4 mm 3 mps 728 mmHg 81%
    09:00 +9°C° 0.4 mm 3 mps 728 mmHg 77%
    10:00 +10°C° 0.4 mm 3 mps 728 mmHg 74%
    11:00 +11°C° 0.4 mm 3 mps 728 mmHg 72%
    12:00 +11°C° 0.4 mm 3 mps 727 mmHg 70%
    13:00 +12°C° 0.4 mm 3 mps 727 mmHg 68%
    14:00 +11°C° 0.7 mm 3 mps 727 mmHg 71%
    15:00 +12°C° 0.7 mm 2 mps 727 mmHg 73%
    16:00 +10°C° 0.7 mm 2 mps 726 mmHg 76%
    17:00 +10°C° 1.2 mm 2 mps 726 mmHg 80%
    18:00 +9°C° 1.2 mm 2 mps 727 mmHg 84%
    19:00 +8°C° 1.2 mm 2 mps 727 mmHg 88%
    20:00 +8°C° 1.2 mm 2 mps 727 mmHg 88%
    21:00 +8°C° 1.2 mm 2 mps 727 mmHg 88%
    22:00 +8°C° 1.2 mm 3 mps 727 mmHg 89%
    23:00 +8°C° 1 mm 3 mps 727 mmHg 89%

    22 February, Thursday

    Time Temperature Precipitation Wind Pressure Humidity
    00:00 +8°C° 1 mm 3 mps 727 mmHg 89%
    01:00 +8°C° 1 mm 3 mps 727 mmHg 89%
    02:00 +8°C° 0.3 mm 3 mps 727 mmHg 88%
    03:00 +7°C° 0.3 mm 3 mps 727 mmHg 88%
    04:00 +7°C° 0.3 mm 3 mps 727 mmHg 87%
    05:00 +7°C° 0.1 mm 3 mps 727 mmHg 87%
    06:00 +7°C° 0.1 mm 3 mps 727 mmHg 87%
    07:00 +7°C° 0.1 mm 2 mps 727 mmHg 86%
    08:00 +9°C° 0 mm 3 mps 728 mmHg 82%
    09:00 +10°C° 0 mm 3 mps 728 mmHg 77%
    10:00 +12°C° 0 mm 3 mps 728 mmHg 73%
    11:00 +12°C° 0.1 mm 3 mps 728 mmHg 70%
    12:00 +13°C° 0.1 mm 3 mps 728 mmHg 67%
    13:00 +14°C° 0.1 mm 3 mps 728 mmHg 64%
    14:00 +14°C° 0.2 mm 3 mps 728 mmHg 65%
    15:00 +13°C° 0.2 mm 3 mps 728 mmHg 67%
    16:00 +13°C° 0.2 mm 3 mps 728 mmHg 69%
    17:00 +13°C° 0.2 mm 2 mps 728 mmHg 74%
    18:00 +12°C° 0.2 mm 2 mps 728 mmHg 78%
    19:00 +10°C° 0.2 mm 2 mps 729 mmHg 83%
    20:00 +9°C° 0 mm 2 mps 729 mmHg 84%
    21:00 +9°C° 0 mm 2 mps 729 mmHg 84%
    22:00 +8°C° 0 mm 2 mps 729 mmHg 85%
    23:00 +8°C° 0 mm 2 mps 729 mmHg 85%

    23 February, Friday

    Time Temperature Precipitation Wind Pressure Humidity
    00:00 +8°C° 0 mm 2 mps 729 mmHg 86%
    01:00 +7°C° 0 mm 2 mps 729 mmHg 86%
    02:00 +7°C° 0 mm 2 mps 729 mmHg 86%
    03:00 +7°C° 0 mm 2 mps 728 mmHg 86%
    04:00 +7°C° 0 mm 2 mps 728 mmHg 86%
    05:00 +7°C° 0 mm 3 mps 728 mmHg 86%
    06:00 +7°C° 0 mm 3 mps 728 mmHg 85%
    07:00 +7°C° 0 mm 3 mps 728 mmHg 85%
    08:00 +9°C° 0 mm 3 mps 728 mmHg 78%
    09:00 +10°C° 0 mm 3 mps 728 mmHg 72%
    10:00 +12°C° 0 mm 4 mps 727 mmHg 65%
    11:00 +13°C° 0.1 mm 4 mps 727 mmHg 63%
    12:00 +13°C° 0.1 mm 4 mps 726 mmHg 61%
    13:00 +14°C° 0.1 mm 5 mps 726 mmHg 60%
    14:00 +13°C° 0.6 mm 5 mps 725 mmHg 62%
    15:00 +13°C° 0.6 mm 5 mps 725 mmHg 65%
    16:00 +12°C° 0.6 mm 5 mps 725 mmHg 68%
    17:00 +10°C° 1.2 mm 5 mps 725 mmHg 74%
    18:00 +11°C° 1.2 mm 4 mps 725 mmHg 81%
    19:00 +10°C° 1.2 mm 4 mps 725 mmHg 87%
    20:00 +9°C° 0.6 mm 3 mps 725 mmHg 89%
    21:00 +9°C° 0.6 mm 3 mps 726 mmHg 91%
    22:00 +8°C° 0.6 mm 3 mps 726 mmHg 92%
    23:00 +8°C° 0.3 mm 3 mps 726 mmHg 92%

    24 February, Saturday

    Time Temperature Precipitation Wind Pressure Humidity
    00:00 +7°C° 0.3 mm 3 mps 726 mmHg 92%
    01:00 +7°C° 0.3 mm 3 mps 726 mmHg 92%
    02:00 +7°C° 0.3 mm 3 mps 726 mmHg 91%
    03:00 +7°C° 0.3 mm 3 mps 726 mmHg 91%
    04:00 +5°C° 0.3 mm 3 mps 726 mmHg 91%
    05:00 +5°C° 0.3 mm 3 mps 726 mmHg 89%
    06:00 +5°C° 0.3 mm 3 mps 726 mmHg 87%
    07:00 +5°C° 0.3 mm 3 mps 726 mmHg 86%
    08:00 +6°C° 0.5 mm 4 mps 726 mmHg 81%
    09:00 +7°C° 0.5 mm 5 mps 726 mmHg 76%
    10:00 +8°C° 0.5 mm 6 mps 726 mmHg 71%
    11:00 +8°C° 0.9 mm 6 mps 726 mmHg 72%
    12:00 +9°C° 0.9 mm 7 mps 726 mmHg 72%
    13:00 +9°C° 0.9 mm 7 mps 726 mmHg 73%
    14:00 +8°C° 1.1 mm 6 mps 726 mmHg 78%
    15:00 +7°C° 1.1 mm 6 mps 726 mmHg 82%
    16:00 +7°C° 1.1 mm 5 mps 726 mmHg 86%
    17:00 +6°C° 0.9 mm 5 mps 727 mmHg 88%
    18:00 +6°C° 0.9 mm 4 mps 727 mmHg 91%
    19:00 +5°C° 0.9 mm 3 mps 728 mmHg 93%
    20:00 +5°C° 1 mm 3 mps 729 mmHg 94%
    21:00 +5°C° 1 mm 3 mps 729 mmHg 94%
    22:00 +5°C° 1 mm 3 mps 730 mmHg 94%
    23:00 +4°C° 0.6 mm 3 mps 730 mmHg 93%
    Show more